Weather History for Columbia, SC

Change the Weather History Date:

Friday, April 5, 2013

  Actual Average Record
Temperature  
Mean Temperature 52 °F 61 °F  
Max Temperature 62 °F 74 °F 91 °F (2010)
Min Temperature 42 °F 48 °F 30 °F (1891)
Degree Days  
Heating Degree Days 13 6  
Month to date heating degree days 41 30  
Since 1 July heating degree days 2200 2439  
Cooling Degree Days 0 2  
Month to date cooling degree days 3 6  
Year to date cooling degree days 41 28  
Growing Degree Days 2 (Base 50)    
Moisture  
Dew Point 41 °F    
Average Humidity 71    
Maximum Humidity 89    
Minimum Humidity 52    
Precipitation  
Precipitation 0.00 in 0.09 in 1.52 in (2008)
Month to date precipitation 1.54 0.47  
Year to date precipitation 11.91 11.39  
Sea Level Pressure  
Sea Level Pressure 29.97 in    
Wind  
Wind Speed 4 mph (NNW)    
Max Wind Speed 12 mph    
Max Gust Speed 17 mph    
Visibility 9 miles    
Events      
T = Trace of Precipitation, MM = Missing Value Source: NWS Daily Summary

Daily Weather History Graph

Daily Weather History Graph

Search for Another Location

Airport:

Trip Planner

Search our weather history database for the weather conditions in past years. The results will help you decide how hot, cold, wet, or windy it might be!

Date:

Astronomy

Apr. 05, 2013 Rise Set
Actual Time 7:06 AM EDT 7:48 PM EDT
Civil Twilight 6:40 AM EDT 8:13 PM EDT
Nautical Twilight 6:11 AM EDT 8:43 PM EDT
Astronomical Twilight 5:40 AM EDT 9:14 PM EDT
Moon 3:59 AM EDT (4/5) 3:22 PM EDT (4/5)
Length of Visible Light 13h 32m
Length of Day
12h 42m
Waning Crescent, 24% of the Moon is Illuminated
Apr 5
Waning Crescent
Apr 10
New
Apr 18
First Quarter
Apr 25
Full
May 2
Last Quarter

Hourly Weather History & Observations

Time (EDT) Temp. Windchill Dew Point Humidity Pressure Visibility Wind Dir Wind Speed Gust Speed Precip Events Conditions
12:56 AM 43.0 °F 39.5 °F 39.0 °F 86% 29.98 in 2.0 mi NNW 5.8 mph - N/A   Overcast
1:56 AM 42.1 °F 37.1 °F 37.9 °F 85% 29.96 in 2.0 mi NW 8.1 mph - N/A   Overcast
2:03 AM 42.8 °F 38.6 °F 37.4 °F 81% 29.95 in 6.0 mi NW 6.9 mph - N/A   Overcast
2:56 AM 42.1 °F 37.7 °F 37.9 °F 85% 29.96 in 6.0 mi Variable 6.9 mph - N/A   Overcast
3:56 AM 42.1 °F 38.4 °F 37.9 °F 85% 29.93 in 10.0 mi North 5.8 mph - N/A   Overcast
4:56 AM 42.1 °F 37.7 °F 37.0 °F 82% 29.93 in 10.0 mi North 6.9 mph - N/A   Overcast
5:13 AM 42.8 °F - 37.4 °F 81% 29.94 in 10.0 mi Calm Calm - N/A   Overcast
5:46 AM 42.8 °F 41.1 °F 37.4 °F 81% 29.95 in 10.0 mi Variable 3.5 mph - N/A   Overcast
5:56 AM 42.1 °F 39.2 °F 37.0 °F 82% 29.96 in 10.0 mi NNW 4.6 mph - N/A   Overcast
6:37 AM 42.8 °F 40.1 °F 37.4 °F 81% 29.94 in 10.0 mi NNW 4.6 mph - N/A   Overcast
6:56 AM 42.1 °F 39.2 °F 37.9 °F 85% 29.94 in 10.0 mi NNW 4.6 mph - N/A   Overcast
7:06 AM 42.8 °F 38.6 °F 37.4 °F 81% 29.94 in 10.0 mi NNW 6.9 mph - N/A   Overcast
7:29 AM 42.8 °F 40.1 °F 37.4 °F 81% 29.94 in 10.0 mi NNW 4.6 mph - N/A   Overcast
7:56 AM 42.1 °F 38.4 °F 37.9 °F 85% 29.94 in 10.0 mi NNW 5.8 mph - N/A   Scattered Clouds
8:09 AM 42.8 °F 41.1 °F 37.4 °F 81% 29.94 in 10.0 mi Variable 3.5 mph - N/A   Partly Cloudy
8:31 AM 42.8 °F 41.1 °F 37.4 °F 81% 29.96 in 10.0 mi Variable 3.5 mph - N/A   Mostly Cloudy
8:56 AM 44.1 °F 41.5 °F 37.9 °F 79% 29.97 in 10.0 mi Variable 4.6 mph - N/A   Mostly Cloudy
9:03 AM 44.6 °F 41.4 °F 39.2 °F 81% 29.97 in 10.0 mi North 5.8 mph - N/A   Mostly Cloudy
9:56 AM 45.0 °F 41.8 °F 37.9 °F 76% 30.00 in 10.0 mi North 5.8 mph - N/A   Overcast
10:56 AM 48.9 °F - 39.9 °F 71% 29.99 in 10.0 mi Variable 4.6 mph - N/A   Mostly Cloudy
11:31 AM 50.0 °F - 39.2 °F 66% 29.99 in 10.0 mi North 8.1 mph - N/A   Overcast
11:56 AM 52.0 °F - 42.1 °F 69% 29.99 in 10.0 mi NNE 5.8 mph - N/A   Mostly Cloudy
12:56 PM 54.0 °F - 43.0 °F 66% 29.99 in 10.0 mi Calm Calm - N/A   Overcast
1:56 PM 57.9 °F - 44.1 °F 60% 29.97 in 10.0 mi North 5.8 mph - N/A   Overcast
2:20 PM 57.2 °F - 44.6 °F 63% 29.96 in 10.0 mi NE 5.8 mph - N/A   Overcast
2:56 PM 57.9 °F - 44.1 °F 60% 29.96 in 10.0 mi North 5.8 mph - N/A   Overcast
3:07 PM 57.2 °F - 44.6 °F 63% 29.95 in 10.0 mi North 6.9 mph - N/A   Overcast
3:56 PM 57.9 °F - 44.1 °F 60% 29.95 in 10.0 mi North 8.1 mph - N/A   Overcast
4:56 PM 60.1 °F - 45.0 °F 57% 29.95 in 10.0 mi North 5.8 mph - N/A   Overcast
5:56 PM 60.1 °F - 45.0 °F 57% 29.96 in 10.0 mi WNW 6.9 mph - N/A   Mostly Cloudy
6:56 PM 62.1 °F - 45.0 °F 53% 29.96 in 10.0 mi Calm Calm - N/A   Scattered Clouds
7:56 PM 57.0 °F - 46.9 °F 69% 29.98 in 10.0 mi South 3.5 mph - N/A   Clear
8:56 PM 52.0 °F - 46.0 °F 80% 30.00 in 10.0 mi Calm Calm - N/A   Clear
9:56 PM 48.9 °F - 45.0 °F 86% 30.03 in 10.0 mi Calm Calm - N/A   Clear
10:56 PM 48.9 °F - 45.0 °F 86% 30.04 in 10.0 mi West 3.5 mph - N/A   Clear
11:56 PM 46.9 °F - 43.0 °F 86% 30.04 in 10.0 mi Calm Calm - N/A   Clear